Location: ????????
(60.6130°N, 46.8592°E)
Time: 14:26:44
(UTC+00:00)

Daily predictions for brighter satellites

Satellite Brightness Start Highest point End
(mag) Time Altitude Azimuth Time Altitude Azimuth Time Altitude Azimuth
Cosmos 1763 Rocket 3.9 12:44:21 10° S 12:49:08 44° ESE 12:53:57 10° NE
CZ-4B R/B 3.1 12:48:33 10° SSE 12:52:46 86° WSW 12:57:13 10° NNW
Meteor 2-3 Rocket 4.2 12:49:56 10° NNW 12:55:45 73° WSW 13:01:32 10° S
Cosmos 2285 Rocket 4.4 12:49:44 10° NW 12:55:52 42° NE 13:01:55 10° ESE
CZ-4 R/B 3.2 12:54:35 10° ENE 12:56:32 13° NE 12:58:29 10° NNE
NOSS 3-3 (A) 4.3 12:50:43 10° W 12:57:16 71° N 13:04:50 10° E
NOSS 3-3 (C) 4.3 12:50:49 10° W 12:57:21 71° N 13:04:55 10° E
Cosmos 2237 4.4 12:51:53 10° SSW 12:57:30 63° ESE 13:03:09 10° NE
Cosmos 2074 Rocket 4.0 12:52:10 10° NNW 12:58:24 65° ENE 13:04:36 10° SSE
Cosmos 2298 Rocket 4.0 12:53:15 10° NNW 12:58:37 83° ENE 13:03:57 10° SE
Cosmos 2150 Rocket 4.0 12:54:26 10° NNW 12:59:41 80° NE 13:04:51 10° SE
Cosmos 1943 Rocket 2.6 12:55:07 10° NW 13:00:20 41° NNE 13:05:35 10° E
Cosmos 2297 3.9 12:56:33 10° NW 13:02:05 51° NE 13:07:39 10° ESE
Cosmos 1869 4.1 12:58:41 10° SSE 13:02:24 35° E 13:06:10 10° NNE
Cosmos 1818 4.2 12:57:29 10° WNW 13:02:55 65° SW 13:08:19 10° SE
H-2A R/B 3.5 13:00:28 10° NE 13:03:21 18° E 13:06:16 10° SE
NOAA 6 4.0 13:00:45 10° SSE 13:05:52 67° ENE 13:11:00 10° NNW
YAOGAN 6 2.9 13:02:38 10° SE 13:06:07 44° ENE 13:09:35 10° N
Cosmos 1939 Rocket 4.1 13:03:55 10° E 13:06:49 20° NE 13:09:45 10° N
Aureole 2 Rocket 3.8 13:04:54 10° NW 13:07:25 34° WSW 13:10:00 10° S
Cosmos 405 4.2 13:05:36 10° SSE 13:08:28 24° E 13:11:21 10° NE
H-2A R/B 2.7 13:06:56 10° SSE 13:10:46 77° ENE 13:14:41 10° NNW
Cosmos 2184 Rocket 4.0 13:05:23 10° NNW 13:11:50 75° ENE 13:18:13 10° SSE
Cosmos 1125 Rocket 3.5 13:06:43 10° NNW 13:11:58 76° NE 13:17:11 10° SE
Cosmos 1633 Rocket 4.2 13:08:51 10° N 13:12:25 23° NE 13:15:56 10° ESE
USA 267 3.7 13:06:53 10° ESE 13:13:22 64° S 13:19:54 10° W
CZ-2C R/B 4.1 13:09:42 10° E 13:13:23 21° NE 13:16:59 10° N
S3M 4.4 13:07:37 10° SSW 13:13:56 70° WNW 13:20:21 10° NNE
Cosmos 405 Rocket 2.7 13:10:19 10° NNW 13:14:09 61° ENE 13:18:04 10° SSE
Cosmos 2322 Rocket 2.3 13:08:58 10° SW 13:14:42 83° NW 13:20:25 10° NE
Spot 2 4.4 13:10:12 10° SSE 13:14:54 88° ENE 13:19:55 10° NNW
Cosmos-2242 3.1 13:10:37 10° SSW 13:15:02 84° WNW 13:19:28 10° NNE
Cosmos 921 Rocket 3.1 13:14:04 10° SSW 13:18:37 85° ESE 13:23:10 10° NNE
ARGOS 4.5 13:16:15 10° E 13:19:58 19° NE 13:23:39 10° N
Radarsat Rocket 4.2 13:16:46 10° SSE 13:22:58 84° ENE 13:30:00 10° NNW
Cosmos 1356 4.1 13:22:52 10° N 13:26:01 32° ENE 13:29:09 10° SE
Cosmos 540 Rocket 3.8 13:22:11 10° S 13:27:05 48° ESE 13:31:58 10° NE
Cosmos 468 Rocket 4.0 13:22:09 10° SSW 13:27:17 79° ESE 13:32:27 10° NE
SMAP 3.1 13:23:48 10° SE 13:28:24 62° ENE 13:33:02 10° NNW
PAYLOAD B 4.3 13:23:24 10° SSE 13:29:00 88° ENE 13:34:37 10° NNW
Cosmos 2221 2.9 13:26:12 10° SSE 13:30:18 44° E 13:34:25 10° NNE
Cosmos 1500 Rocket 3.5 13:27:28 10° NNW 13:31:53 84° ENE 13:36:18 10° SSE
Cosmos 1697 Rocket 3.8 13:26:51 10° W 13:31:58 33° NNW 13:36:42 12° NE
CZ-4B DEB 4.4 13:27:17 10° SSE 13:32:47 79° WSW 13:38:18 10° NNW
Cosmos 44 Rocket 3.7 13:28:41 10° WNW 13:33:38 53° N 13:38:03 14° E
Cosmos 2333 Rocket 2.5 13:29:46 10° SSW 13:35:15 52° ESE 13:40:13 13° NE
Cosmos 2278 Rocket 3.0 13:32:38 10° NW 13:38:13 57° WSW 13:43:45 10° SSE
Meteor 1-28 Rocket 4.3 13:36:54 10° N 13:40:33 43° WNW 13:44:09 10° SW
SeaSat 1 3.9 13:37:46 13° NE 13:41:02 23° N 13:44:53 10° NW
COSMOS 2428 3.1 13:35:34 10° S 13:41:02 47° ESE 13:45:46 14° NE
IRS-1C Rocket 4.4 13:37:18 10° SE 13:42:15 43° ENE 13:47:14 10° NNW
Cosmos 841 Rocket 3.6 13:37:32 10° SSW 13:42:39 58° ESE 13:47:23 12° NE
Cosmos 1606 4.1 13:40:00 10° SE 13:42:54 20° E 13:44:07 17° ENE
DNEPR-1 R/B 4.5 13:35:57 10° SW 13:42:56 78° SE 13:47:36 16° ENE
USA 281 3.3 13:36:51 10° ESE 13:43:17 60° NE 13:49:44 10° NNW
Cosmos 1455 4.4 13:41:17 10° WSW 13:44:22 22° WNW 13:47:29 10° N
Meteor 1-27 4.2 13:39:38 10° SSW 13:45:17 86° ESE 13:51:05 10° NNE
Envisat 3.3 13:43:42 10° S 13:48:47 71° WSW 13:53:54 10° NNW
Cosmos 1470 Rocket 4.4 13:45:03 10° N 13:48:48 27° ENE 13:52:31 10° ESE
H-2A R/B 2.9 13:45:26 10° S 13:49:42 67° WSW 13:53:49 10° NNW
Cosmos 2218 Rocket 4.2 13:45:27 10° N 13:51:23 45° ENE 13:57:15 10° SE
NOAA 12 4.1 13:46:31 10° SSE 13:51:52 87° ENE 13:57:15 10° NNW
YAOGAN 1 3.5 13:48:47 10° ESE 13:52:26 27° NE 13:56:07 10° N
Feng Yun 1-1 Rocket 4.3 13:46:49 10° SE 13:52:27 59° ENE 13:57:57 10° NNW
SL-08 R/B 3.8 13:48:44 10° NNE 13:53:39 64° WNW 13:58:28 10° SW
Cosmos 1743 Rocket 4.0 13:50:04 10° NNW 13:54:33 67° W 13:58:58 10° S
Cosmos 2360 Rocket 2.3 13:49:18 10° SW 13:54:56 77° NW 13:59:52 14° NE
COSMO-SKYMED 1 4.0 13:56:00 18° E 13:56:00 18° E 13:58:48 10° SE
Meteor 1-25 Rocket 4.3 13:52:17 10° NNW 13:57:46 52° ENE 14:03:16 10° SE
ERS-2 3.6 13:59:26 19° E 13:59:26 19° E 14:01:46 10° SE
Cosmos 2366 rocket 4.1 13:55:12 10° N 14:01:16 49° ENE 14:07:14 10° SE
Sich 1 3.0 13:56:53 10° NNW 14:01:19 71° ENE 14:05:42 10° SSE
Cosmos 2219 Rocket 2.2 13:57:01 10° SSW 14:02:38 67° ESE 14:07:02 17° NE
ADEOS Rocket 3.6 13:55:37 10° NNE 14:03:09 78° ESE 14:10:59 10° SSW
Helios 1A Rocket 3.5 14:00:52 10° ESE 14:04:32 34° ENE 14:08:12 10° N
Cosmos 1862 4.0 14:01:20 10° NNW 14:05:21 58° W 14:09:19 10° S
GEOS 3 Rocket 3.9 14:02:07 19° ENE 14:06:02 65° NNW 14:11:23 10° W
H-2A R/B 2.7 14:01:34 10° ESE 14:06:14 33° NE 14:10:48 10° N
Cosmos 44 3.7 14:01:39 10° WNW 14:06:47 71° SW 14:12:08 10° SE
Cosmos 1656 Rocket 4.1 14:01:59 10° NW 14:07:26 44° NNE 14:11:04 20° E
Cosmos 1980 Rocket 3.3 14:03:25 10° W 14:08:27 33° NNW 14:12:15 16° NE
Okean-O 3.0 14:05:07 10° SE 14:09:14 39° ENE 14:13:23 10° N
Cosmos 1814 Rocket 4.0 14:03:57 10° SSW 14:09:15 70° ESE 14:13:28 16° NE
Cosmos 1602 4.4 14:06:47 10° N 14:10:26 34° ENE 14:13:33 13° SE
CZ-4B R/B 3.5 14:05:07 10° S 14:10:26 69° WSW 14:15:45 10° NNW
Nadezhda 1 Rocket 4.0 14:04:49 10° S 14:11:08 68° E 14:17:31 10° NNE
SL-16 R/B 2.9 14:06:29 10° WSW 14:11:58 47° NNW 14:16:22 16° NE
Cosmos 2237 Rocket 2.8 14:08:32 10° S 14:13:39 37° ESE 14:16:30 23° ENE
Cosmos 1805 Rocket 3.8 14:09:58 10° NNW 14:14:29 76° WSW 14:18:56 10° S
Cosmos 1842 Rocket 3.6 14:10:54 10° SSW 14:15:14 81° WNW 14:19:37 10° NNE
NOAA 11 4.2 14:10:47 10° SSE 14:16:13 89° W 14:21:43 10° NNW
CZ-2D R/B 3.4 14:14:18 10° SE 14:18:00 49° ENE 14:21:44 10° N
Cosmos 2154 Rocket 4.4 14:11:55 10° NNW 14:18:13 68° W 14:24:30 10° S
Okean O Rocket 2.1 14:14:35 10° S 14:18:56 64° WSW 14:23:19 10° NNW
Cosmos 962 Rocket 4.5 14:12:55 10° NNW 14:19:18 88° ENE 14:25:35 10° SSE
Cosmos 2369 Rocket 2.2 14:13:39 10° NW 14:19:22 62° NE 14:24:09 15° ESE
Cosmos 1933 Rocket 4.2 14:15:27 10° N 14:19:33 34° ENE 14:21:38 23° ESE
Cosmos 1666 Rocket 3.4 14:16:26 10° NNW 14:20:50 72° ENE 14:25:15 10° SSE
Cosmos 1570 Rocket 4.0 14:16:04 10° SSW 14:21:23 88° ESE 14:25:31 17° NNE
SL-16 R/B 4.2 14:16:23 10° NNE 14:21:35 28° NW 14:26:46 10° W
FengYun 1-2 T 4.4 14:18:30 10° SSE 14:24:03 78° WSW 14:29:37 10° NNW
Cosmos 1151 Rocket 4.2 14:20:33 10° SE 14:23:05 24° ESE 14:23:05 24° ESE
Cosmos 2322 3.7 14:19:02 10° SW 14:24:44 83° NW 14:28:54 19° NE
NOSS 0 Rocket 4.2 14:19:12 10° SSW 14:25:12 51° ESE 14:28:54 23° NE
Cosmos 371 Rocket 4.3 14:21:14 10° NNW 14:25:31 29° NNE 14:26:31 26° NE
CZ-4C R/B 3.1 14:22:54 14° NNE 14:25:57 81° WNW 14:29:35 10° SSW
CSL-04 Rocket 4.0 14:21:26 12° ESE 14:25:59 41° NE 14:30:57 10° NNW
Cosmos 2084 Rocket 3.3 14:23:03 10° WSW 14:27:15 84° SSE 14:29:03 34° ENE
Landsat 5 3.5 14:24:06 10° NNE 14:28:24 88° WNW 14:32:51 10° SSW
Cosmos 2341 Rocket 4.0 14:22:15 10° NNW 14:28:34 90° W 14:34:54 10° S
CZ-4 R/B 1.5 14:26:54 10° SE 14:30:43 49° ENE 14:34:40 10° N
Cosmos 1763 Rocket 4.1 14:25:59 10° SW 14:30:57 52° NW 14:34:55 16° NNE
Cosmos 1980 3.9 14:26:30 10° S 14:31:56 49° ESE 14:34:42 27° ENE
Ariane Rocket 4.1 14:33:08 25° NE 14:33:08 25° NE 14:37:07 10° N
Cosmos 1607 4.0 14:30:01 10° WSW 14:36:27 90° NNW 14:40:15 27° ENE
H-2A R/B 1.9 14:36:38 16° NNE 14:39:56 89° WNW 14:44:09 10° SSW
Cosmos 1939 Rocket 2.8 14:37:26 10° SSE 14:41:19 84° WSW 14:45:18 10° NNW
Meteor 1-11 Rocket 4.3 14:37:13 10° N 14:42:22 34° NE 14:43:16 32° ENE
Cosmos 405 4.0 14:39:33 10° SW 14:42:55 46° WNW 14:45:30 16° N
Cosmos 2285 Rocket 4.2 14:36:47 10° NW 14:43:14 77° WSW 14:49:36 10° SSE
Cosmos 389 Rocket 2.7 14:40:39 10° S 14:43:31 47° SE 14:43:31 47° SE
SKYMED 2 4.1 14:44:39 38° ESE 14:44:39 38° ESE 14:48:27 10° SSE
Cosmos 1943 Rocket 2.2 14:39:02 10° NW 14:44:36 82° SW 14:50:11 10° SE
Cosmos 2297 4.3 14:40:53 10° NW 14:46:28 59° WSW 14:52:03 10° SSE
Cosmos 2333 4.5 14:42:15 10° SW 14:47:53 65° NW 14:51:24 23° NE
NOSS 3-3 (A) 4.3 14:41:50 10° WNW 14:48:44 85° NNE 14:53:31 26° ESE
NOSS 3-3 (C) 4.3 14:41:56 10° WNW 14:48:50 84° NNE 14:53:35 26° ESE
Cosmos 864 Rocket 4.4 14:42:44 10° NNW 14:49:08 82° ENE 14:55:27 10° SSE
SL-8 Rocket 4.0 14:43:17 10° NNW 14:49:32 85° W 14:55:48 10° S
Cosmos 1633 Rocket 3.1 14:46:20 10° NNW 14:50:46 79° WSW 14:55:08 10° S
NOAA 15 4.5 14:46:07 10° SSE 14:51:23 73° ENE 14:56:40 10° NNW
CZ-2C R/B 2.8 14:47:40 10° SSE 14:52:41 75° ENE 14:57:32 10° NNW
CSL-04 DEB 4.3 14:50:30 27° NNE 14:52:42 88° ESE 14:56:51 10° SSW
ISS -1.3 14:53:46 10° SSW 14:55:02 13° S 14:55:02 13° S
USA 267 4.3 14:51:00 10° SE 14:57:08 42° SSW 15:03:19 10° W
Cosmos 2056 Rocket 4.0 14:52:43 10° NNW 14:57:35 38° NE 14:58:02 37° NE
Meteor 1-14 Rocket 4.2 14:51:40 10° NNW 14:57:36 75° ENE 15:03:35 10° SSE
Cosmos 1934 Rocket 4.4 14:52:33 10° N 14:58:33 40° ENE 14:59:47 37° E
ARGOS 3.2 14:56:43 29° SE 14:59:17 54° ENE 15:04:34 10° NNW
Cosmos 2322 Rocket 3.3 14:54:10 10° W 14:59:27 37° NNW 15:02:27 22° NNE
CZ-4B R/B 2.7 15:01:17 27° S 15:01:17 27° S 15:02:50 10° S
SL-16 R/B 2.8 14:57:10 10° S 15:01:48 34° ESE 15:01:48 34° ESE
Cosmos 1821 Rocket 4.0 14:57:21 10° N 15:03:28 58° ENE 15:08:47 14° SE
SL-24 DEB 4.3 14:59:07 10° N 15:03:52 56° E 15:08:32 10° SSE
Cosmos 2181 Rocket 3.9 15:00:30 10° S 15:06:52 69° E 15:13:11 10° NNE
Resurs 01 Rocket 3.9 15:09:31 12° N 15:09:31 12° N 15:10:03 10° N
Cosmos 2208 Rocket 4.4 15:02:13 10° SW 15:07:30 62° NW 15:10:44 24° NNE
Cosmos 2221 4.0 15:03:58 10° SW 15:07:59 36° WNW 15:12:00 10° N
Cosmos 540 Rocket 4.2 15:03:47 10° WSW 15:08:46 49° NW 15:11:47 23° NNE
Cosmos 2263 4.1 15:03:47 10° NW 15:09:29 84° NE 15:11:58 35° SE
Meteor 1-26 Rocket 4.4 15:08:23 10° S 15:14:15 56° E 15:17:22 28° NNE
Cosmos 44 Rocket 3.3 15:10:30 10° WNW 15:15:37 85° NNE 15:16:46 56° ESE
Cosmos 1624 Rocket 4.3 15:10:44 10° NNW 15:15:53 45° NE 15:15:56 45° NE
Cosmos 1933 3.5 15:12:40 10° S 15:16:05 60° SSE 15:16:05 60° SSE
Cosmos 1697 Rocket 3.8 15:12:27 10° NW 15:17:26 30° N 15:18:26 28° NNE
SeaSat 1 3.5 15:17:33 30° NNE 15:17:34 30° NNE 15:21:51 10° NW
Cosmos 1606 3.0 15:14:20 10° SSW 15:18:13 68° WNW 15:19:09 48° N
Cosmos 2333 Rocket 2.7 15:13:59 10° WSW 15:19:35 57° NW 15:22:14 30° NNE
SL-08 R/B 4.4 15:14:43 10° NNW 15:20:59 89° ENE 15:27:07 10° SSE
Cosmos 841 Rocket 4.5 15:19:47 10° WSW 15:24:46 43° NW 15:27:28 24° NNE
COSMOS 2428 3.1 15:19:35 10° WSW 15:25:17 61° NW 15:27:47 33° NNE
Cosmos 1470 Rocket 3.9 15:22:44 10° NNW 15:27:03 63° W 15:31:20 10° S
USA 281 3.9 15:21:32 10° SSE 15:27:57 54° WSW 15:34:25 10° NW
YAOGAN 1 2.8 15:24:33 14° S 15:28:16 68° WSW 15:32:37 10° NNW
DNEPR-1 R/B 4.4 15:24:14 10° W 15:30:42 62° NNW 15:31:55 50° NE
COSMO-SKYMED 1 2.7 15:33:14 66° S 15:33:14 66° S 15:36:59 10° SSW
ERS-2 3.1 15:34:02 43° SW 15:34:02 43° SW 15:36:39 10° SSW
EO 1 Delta rocket 4.0 15:32:33 25° NNE 15:35:35 83° ESE 15:41:36 10° S
Helios 1A Rocket 3.9 15:35:45 10° S 15:39:38 45° W 15:43:33 10° NNW
Cosmos 2360 Rocket 3.3 15:34:33 10° W 15:39:43 36° NNW 15:41:37 28° NNE
Meteor 1-5 Rocket 4.2 15:36:12 10° NNW 15:42:15 89° WSW 15:45:05 33° SSE
CSL-04 Debris 4.3 15:38:41 13° S 15:43:34 73° WSW 15:49:05 10° NNW
GEOS 3 Rocket 3.9 15:43:13 54° NNE 15:43:46 56° N 15:49:04 10° WNW
MOS 1 4.5 15:45:06 54° NNE 15:45:06 54° NNE 15:49:59 10° NNW
H-2A R/B 2.3 15:40:38 13° S 15:45:25 69° WSW 15:50:35 10° NNW
Okean-O 3.7 15:41:29 10° S 15:45:44 45° W 15:50:01 10° NNW
Cosmos 2219 Rocket 2.9 15:41:26 10° WSW 15:46:54 47° NNW 15:48:44 35° NNE
Cosmos 1605 Rocket 4.4 15:43:31 10° N 15:48:15 45° NNE 15:48:15 45° NNE
Cosmos 1656 Rocket 3.7 15:45:46 10° NW 15:51:29 75° SW 15:52:28 60° S
Cosmos 1932 4.4 15:46:03 10° SW 15:52:33 73° SE 15:53:07 69° ESE
Cosmos 1980 Rocket 3.3 15:49:01 10° NW 15:53:57 30° N 15:54:00 30° N
Cosmos 724 4.4 15:48:54 10° WSW 15:54:55 74° NNW 15:55:51 62° NNE
SL-16 R/B 3.5 15:52:22 10° WNW 15:57:20 30° N 15:58:13 29° N
Cosmos 2237 Rocket 2.3 15:51:50 10° SW 15:57:29 71° NW 15:58:21 60° N
Cosmos 1933 Rocket 4.4 15:53:17 10° NNW 15:57:37 49° W 15:58:51 38° SW
Cosmos 1151 Rocket 4.2 15:57:12 10° SSW 15:59:58 37° SW 15:59:58 37° SW
USA 215 3.7 16:03:27 45° SSE 16:03:27 45° SSE 16:09:16 10° SW
Cosmos 2369 Rocket 3.1 15:57:54 10° NW 16:03:20 45° WSW 16:06:00 27° S
CZ-4 R/B 3.2 16:02:50 12° SSW 16:05:59 29° W 16:09:33 10° NNW
CSL-04 Rocket 4.2 16:03:05 24° S 16:06:16 56° WSW 16:11:31 10° NNW
Cosmos 371 Rocket 4.1 16:01:41 10° NNW 16:05:11 47° NNW 16:05:11 47° NNW
Cosmos 1535 Rocket 4.3 16:02:31 10° NNW 16:08:17 76° NNE 16:08:17 76° NNE
Ariane Rocket 3.9 16:13:20 40° NNW 16:13:20 40° NNW 16:16:34 10° NNW
NOSS 0 Rocket 4.2 16:05:29 10° WSW 16:11:41 62° NW 16:12:54 52° N
H-2A R/B 4.3 16:13:44 16° NNW 16:15:28 21° NW 16:18:36 10° W
Cosmos 1980 4.1 16:10:25 10° WSW 16:16:03 59° NW 16:16:34 56° NNW
Cosmos 1607 4.2 16:17:49 10° W 16:24:12 61° N 16:24:22 60° N
Meteor 1-11 Rocket 4.0 16:20:38 10° NNW 16:25:48 67° WNW 16:25:48 67° WNW
Cosmos 1943 Rocket 4.2 16:23:21 10° NW 16:27:42 24° WSW 16:32:01 10° SSW
ARGOS 4.3 16:38:14 33° SW 16:39:46 41° W 16:44:54 10° NNW
Resurs 01 Rocket 4.4 16:47:06 11° NNW 16:47:06 11° NNW 16:47:18 10° NNW
Cosmos 1934 Rocket 4.3 16:37:54 10° NNW 16:44:14 65° W 16:44:20 65° WSW
Cosmos 2322 Rocket 3.7 16:40:00 10° WNW 16:44:16 28° N 16:44:16 28° N
SL-16 R/B 3.3 16:40:21 10° SW 16:43:43 37° SW 16:43:43 37° SW
SeaSat 1 4.3 16:57:20 26° NNW 16:57:20 26° NNW 16:59:30 10° NW
Cosmos 1697 Rocket 4.2 16:57:04 10° NW 17:00:09 31° NNW 17:00:09 31° NNW
Cosmos 2333 Rocket 3.7 16:59:53 10° WNW 17:04:14 31° NNW 17:04:14 31° NNW
COSMOS 2428 4.2 17:05:27 10° WNW 17:09:49 31° NNW 17:09:49 31° NNW
Cosmos 2360 Rocket 4.1 17:20:17 10° NW 17:23:23 24° NNW 17:23:23 24° NNW
Cosmos 2219 Rocket 4.1 17:27:10 10° WNW 17:30:28 25° NW 17:30:28 25° NW
Cosmos 1980 Rocket 4.2 17:33:39 10° NW 17:35:46 23° NNW 17:35:46 23° NNW
Cosmos 2237 Rocket 4.1 17:37:16 10° W 17:40:11 25° WNW 17:40:11 25° WNW
SL-16 R/B 4.3 17:37:43 10° NW 17:40:04 22° NNW 17:40:04 22° NNW
CENTAUR R/B 4.4 23:10:43 31° ESE 23:10:43 31° ESE 23:14:47 10° ESE
Cosmos 2227 Rocket 4.2 23:34:46 23° ENE 23:34:46 23° ENE 23:37:35 10° NE
